FW9940 Weather Reports


time (UTC)temp
C
wind
direction
speed
KPH
gust
KPH
rain 1hr
cm
rain 24hr
cm
rain mn
cm
humidity
%
barometer
mb
20260510143230 10 355 3.2 3.2 0.00 0.00 0.00 47 1016.6
20260510142730 10 327 3.2 3.2 0.00 0.00 0.00 45 1016.6
20260510141730 10 336 3.2 3.2 0.00 0.00 0.00 46 1016.6
20260510140731 10 332 3.2 3.2 0.00 0.00 0.00 47 1016.3
20260510135730 10 6 3.2 3.2 0.00 0.00 0.00 48 1016.3
20260510134730 9 0 3.2 3.2 0.00 0.00 0.00 48 1016.3
20260510133730 8 10 3.2 3.2 0.00 0.00 0.00 51 1016.3
20260510132730 8 357 3.2 3.2 0.00 0.00 0.00 52 1015.9
20260510131730 8 329 1.6 1.6 0.00 0.00 0.00 54 1015.9
20260510130730 7 313 3.2 3.2 0.00 0.00 0.00 54 1015.9
20260510125730 7 0 3.2 3.2 0.00 0.00 0.00 56 1015.9
20260510124730 7 327 3.2 3.2 0.00 0.00 0.00 62 1015.9
20260510123730 7 315 1.6 1.6 0.00 0.00 0.00 63 1015.6
20260510122731 7 342 1.6 1.6 0.00 0.00 0.00 67 1015.6
20260510122230 6 344 1.6 1.6 0.00 0.00 0.00 68 1015.6
20260510121230 6 352 1.6 1.6 0.00 0.00 0.00 70 1015.6
20260510120230 6 0 3.2 3.2 0.00 0.00 0.00 72 1015.2
20260510115230 5 1 1.6 1.6 0.00 0.00 0.00 75 1015.2
20260510114731 5 353 1.6 1.6 0.00 0.00 0.00 75 1015.2
20260510113730 5 354 1.6 1.6 0.00 0.00 0.00 76 1015.2
20260510112731 5 355 1.6 1.6 0.00 0.00 0.00 77 1014.9
20260510112230 5 347 1.6 1.6 0.00 0.00 0.00 78 1014.9
20260510111730 5 357 1.6 1.6 0.00 0.00 0.00 78 1014.6
20260510110730 4 347 1.6 1.6 0.00 0.00 0.00 79 1014.6
20260510105730 4 346 1.6 1.6 0.00 0.00 0.00 80 1014.6
20260510104730 4 342 1.6 1.6 0.00 0.00 0.00 81 1014.6
20260510103730 3 336 1.6 1.6 0.00 0.00 0.00 83 1014.2
20260510102731 3 332 0.0 0.0 0.00 0.00 0.00 87 1014.2
20260510102230 3 316 0.0 0.0 0.00 0.00 0.00 88 1013.9
20260510101230 3 6 0.0 0.0 0.00 0.00 0.00 88 1013.9
20260510100230 3 329 0.0 0.0 0.00 0.00 0.00 89 1013.9
20260510095730 3 335 0.0 0.0 0.00 0.00 0.00 89 1013.5
20260510094730 3 334 0.0 0.0 0.00 0.00 0.00 91 1013.5
20260510093731 2 345 0.0 0.0 0.00 0.00 0.00 93 1013.2
20260510092731 2 207 0.0 0.0 0.00 0.00 0.00 92 1013.2
20260510091730 2 221 0.0 0.0 0.00 0.00 0.00 92 1012.9
20260510090730 2 264 0.0 0.0 0.00 0.00 0.00 91 1012.9
20260510085731 3 258 0.0 0.0 0.00 0.00 0.00 90 1012.5
20260510085230 3 266 0.0 0.0 0.00 0.00 0.00 89 1012.5
20260510084230 3 212 0.0 0.0 0.00 0.00 0.00 89 1012.5
20260510083730 3 316 0.0 0.0 0.00 0.00 0.00 88 1012.5
20260510082730 3 298 0.0 0.0 0.00 0.00 0.00 87 1012.2
20260510081731 3 282 0.0 0.0 0.00 0.00 0.00 86 1011.9
20260510081231 3 282 0.0 0.0 0.00 0.00 0.00 86 1011.9
20260510080231 4 309 0.0 0.0 0.00 0.00 0.00 85 1011.9
20260510075231 4 110 0.0 0.0 0.00 0.00 0.00 84 1011.9
20260510074230 4 321 0.0 0.0 0.00 0.00 0.00 83 1011.9
20260510073230 5 100 0.0 0.0 0.00 0.00 0.00 82 1011.5
20260510072231 5 0 1.6 1.6 0.00 0.00 0.00 81 1011.5
20260510071731 5 46 1.6 1.6 0.00 0.00 0.00 80 1011.5
20260510070730 5 21 1.6 1.6 0.00 0.00 0.00 79 1011.5
20260510065731 5 30 3.2 3.2 0.00 0.00 0.00 79 1011.2
20260510065230 5 40 3.2 3.2 0.00 0.00 0.00 79 1011.2
20260510064230 6 31 3.2 3.2 0.00 0.00 0.00 79 1011.2
20260510063231 6 38 3.2 3.2 0.00 0.00 0.00 78 1011.2
20260510062231 6 41 3.2 3.2 0.00 0.00 0.00 77 1010.8
20260510061231 6 35 3.2 3.2 0.00 0.00 0.00 78 1010.8
20260510060231 6 32 3.2 3.2 0.00 0.00 0.00 78 1010.8
20260510055730 6 23 3.2 3.2 0.00 0.00 0.00 78 1010.8
20260510054731 6 36 3.2 3.2 0.00 0.00 0.00 78 1010.8
20260510053731 6 28 3.2 3.2 0.00 0.00 0.00 78 1010.8
20260510053231 6 26 3.2 3.2 0.00 0.00 0.00 78 1010.8
20260510052231 6 28 3.2 3.2 0.00 0.00 0.00 76 1010.5
20260510051232 7 21 3.2 3.2 0.00 0.00 0.00 76 1010.2
20260510050731 7 34 3.2 3.2 0.00 0.00 0.00 75 1010.2
20260510045731 7 20 3.2 3.2 0.00 0.00 0.00 74 1010.2
20260510045232 7 29 3.2 3.2 0.00 0.00 0.00 74 1009.8
20260510044232 7 48 3.2 3.2 0.00 0.00 0.00 74 1009.5
20260510043731 7 34 3.2 3.2 0.00 0.00 0.00 76 1009.5
20260510042731 7 42 3.2 3.2 0.00 0.00 0.00 76 1009.1
20260510042231 7 37 3.2 3.2 0.00 0.00 0.00 76 1009.1
20260510041231 7 45 3.2 3.2 0.00 0.00 0.41 77 1009.1
20260510040731 7 45 3.2 3.2 0.00 0.00 0.41 77 1009.1
20260510035731 7 42 4.8 4.8 0.00 0.00 0.41 76 1009.1
20260510034731 8 31 4.8 4.8 0.00 0.00 0.41 77 1008.8
20260510033731 8 39 3.2 3.2 0.00 0.00 0.41 77 1008.8
20260510032731 8 36 3.2 3.2 0.00 0.00 0.41 77 1008.5
20260510031732 9 42 3.2 3.2 0.00 0.00 0.41 77 1008.5
20260510031231 9 38 3.2 3.2 0.00 0.00 0.41 77 1008.5
20260510030231 10 39 3.2 3.2 0.00 0.00 0.41 76 1008.1
20260510025731 10 40 3.2 3.2 0.00 0.00 0.41 75 1008.1
20260510024731 10 30 3.2 3.2 0.00 0.00 0.41 74 1007.8
20260510023731 10 20 1.6 1.6 0.00 0.00 0.41 75 1007.8
20260510022731 10 13 1.6 1.6 0.00 0.00 0.41 75 1007.5
20260510022231 9 15 3.2 3.2 0.00 0.00 0.41 75 1007.5
20260510021231 9 37 3.2 3.2 0.00 0.00 0.41 75 1006.8
20260510020231 10 37 4.8 4.8 0.00 0.00 0.41 73 1006.8
20260510015232 11 29 4.8 4.8 0.00 0.00 0.41 70 1006.4
20260510014232 12 26 4.8 4.8 0.00 0.00 0.41 66 1006.1
20260510013231 13 23 3.2 3.2 0.00 0.00 0.41 65 1005.8
20260510012231 15 10 3.2 3.2 0.00 0.00 0.41 54 1005.4
20260510011231 17 12 3.2 3.2 0.00 0.00 0.41 45 1005.1
20260510010232 17 311 3.2 3.2 0.00 0.00 0.41 41 1004.7
20260510005731 17 311 4.8 4.8 0.00 0.00 0.41 41 1004.7
20260510004731 17 320 4.8 4.8 0.00 0.00 0.41 40 1004.4
20260510003733 17 318 4.8 4.8 0.00 0.00 0.41 39 1004.1
20260510002732 17 296 4.8 4.8 0.00 0.00 0.41 39 1004.1
20260510002232 17 329 4.8 4.8 0.00 0.00 0.41 40 1004.1
20260510001731 17 326 6.4 6.4 0.00 0.00 0.41 39 1004.1
20260510000732 18 318 6.4 6.4 0.00 0.00 0.41 38 1003.7
20260509235732 18 325 6.4 6.4 0.00 0.00 0.41 40 1003.7
20260509235232 18 329 6.4 6.4 0.00 0.00 0.41 40 1003.7
20260509234232 19 330 6.4 6.4 0.00 0.00 0.41 41 1003.4
20260509233231 19 312 4.8 4.8 0.00 0.00 0.41 42 1003.0
20260509232232 19 291 4.8 4.8 0.00 0.00 0.41 43 1003.0
20260509231232 19 299 6.4 6.4 0.00 0.00 0.41 42 1003.0
20260509230732 20 315 6.4 6.4 0.00 0.00 0.41 40 1002.7
20260509225732 20 318 4.8 4.8 0.00 0.00 0.41 40 1002.4
20260509224732 20 294 6.4 6.4 0.00 0.00 0.41 41 1002.4
20260509224231 20 294 6.4 6.4 0.00 0.00 0.41 41 1002.4
20260509223232 20 310 6.4 6.4 0.00 0.00 0.41 41 1002.0
20260509222232 20 289 6.4 6.4 0.00 0.00 0.41 42 1002.0
20260509221231 20 316 6.4 6.4 0.00 0.00 0.41 41 1001.7
20260509220232 20 311 6.4 6.4 0.00 0.00 0.41 41 1001.7
20260509215732 20 276 6.4 6.4 0.00 0.00 0.41 40 1001.7
20260509214732 20 301 6.4 6.4 0.00 0.00 0.41 40 1001.4
20260509214232 20 302 6.4 6.4 0.00 0.00 0.41 40 1001.4
20260509213232 20 271 6.4 6.4 0.00 0.00 0.41 41 1001.4
20260509212232 20 297 6.4 6.4 0.00 0.00 0.41 41 1001.0
20260509211232 20 290 6.4 6.4 0.00 0.00 0.43 43 1001.0
20260509210232 20 286 4.8 4.8 0.00 0.00 0.43 44 1001.4
20260509205232 20 284 3.2 3.2 0.00 0.00 0.43 45 1001.4
20260509204732 19 308 3.2 3.2 0.00 0.00 0.43 47 1001.4
20260509203732 18 306 3.2 3.2 0.03 0.00 0.43 65 1001.7
20260509203232 17 289 3.2 3.2 0.03 0.00 0.36 70 1001.7
20260509202232 17 270 3.2 3.2 0.03 0.00 0.36 73 1002.0
20260509201232 16 273 3.2 3.2 0.10 0.00 0.33 75 1002.0
20260509200732 15 236 3.2 3.2 0.10 0.00 0.33 78 1002.0
20260509195732 14 248 3.2 3.2 0.15 0.00 0.33 82 1002.0
20260509194733 12 247 3.2 3.2 0.23 0.00 0.30 87 1002.4
20260509193732 12 197 3.2 3.2 0.25 0.00 0.30 88 1002.4
20260509192733 12 256 3.2 3.2 0.64 0.00 0.66 86 1002.7
20260509191732 13 321 3.2 3.2 0.91 0.00 0.91 83 1002.7
20260509190732 14 322 4.8 4.8 0.91 0.00 0.84 83 1003.0
20260509185732 15 237 4.8 4.8 0.64 0.00 0.23 82 1001.4
20260509184733 17 231 4.8 4.8 0.18 0.00 0.23 75 1001.4
20260509184232 17 216 4.8 4.8 0.18 0.00 0.05 65 1001.0
20260509183733 17 223 4.8 4.8 0.08 0.00 0.05 64 1001.0
20260509182732 18 212 4.8 4.8 0.00 0.00 0.05 62 1001.0
20260509181733 18 193 6.4 6.4 0.00 0.00 0.05 64 1001.0
20260509180732 18 187 6.4 6.4 0.00 0.00 0.05 63 1001.4
20260509180233 18 187 6.4 6.4 0.00 0.00 0.05 63 1001.4
20260509175732 18 182 6.4 6.4 0.00 0.00 0.05 65 1001.4
20260509174732 18 179 6.4 6.4 0.00 0.00 0.05 64 1001.4
20260509173732 18 176 6.4 6.4 0.00 0.00 0.05 65 1001.4
20260509172732 17 173 4.8 4.8 0.00 0.00 0.05 68 1001.7
20260509171733 16 171 4.8 4.8 0.00 0.00 0.05 71 1001.7
20260509170732 16 181 4.8 4.8 0.00 0.00 0.05 72 1001.7
20260509170232 16 206 6.4 6.4 0.03 0.00 0.05 71 1002.0
20260509165232 17 172 6.4 6.4 0.03 0.00 0.05 71 1002.4
20260509164232 16 188 6.4 6.4 0.03 0.00 0.05 71 1002.0
20260509163232 16 176 4.8 4.8 0.03 0.00 0.05 71 1002.4
20260509162233 16 185 4.8 4.8 0.03 0.00 0.05 75 1002.4
20260509161733 16 185 4.8 4.8 0.03 0.00 0.05 75 1002.4
20260509160733 15 171 4.8 4.8 0.03 0.00 0.05 81 1002.4
20260509155732 15 162 4.8 4.8 0.03 0.00 0.03 79 1002.7
20260509154733 13 155 4.8 4.8 0.03 0.00 0.03 82 1002.7
20260509154233 13 169 4.8 4.8 0.03 0.00 0.03 82 1003.0
20260509153233 14 174 4.8 4.8 0.03 0.00 0.03 82 1003.7
20260509152233 13 165 3.2 3.2 0.03 0.00 0.03 85 1003.0
20260509151733 13 165 3.2 3.2 0.03 0.00 0.03 85 1003.0
20260509150733 12 162 3.2 3.2 0.00 0.00 0.00 87 1003.4
20260509150233 12 173 1.6 1.6 0.00 0.00 0.00 87 1004.1
20260509145233 12 257 1.6 1.6 0.00 0.00 0.00 85 1005.1
20260509144732 13 275 1.6 1.6 0.00 0.00 0.00 84 1005.1